COSMOS 2251 DEB, 36559

Orbit data source: Space-Track

COSMOS 2251 DEB, 36559 is space debris in LEO originally from a launch on Wed, 16 Jun 1993 UTC launched from the Plesetsk Missile And Space Complex (PKMTR). The debris from Iridium 33, an American commercial communications satellite, has been tracked extensively since its accidental collision with the defunct Russian satellite Cosmos 2251 in 2009. This event, occurring at high speed in low Earth orbit (LEO), generated thousands of pieces of space debris, significantly increasing the risk of further collisions. The Iridium 33 debris cloud has impacted space traffic management and orbital debris mitigation strategies, making it a subject of ongoing study in space situational awareness.

Loading next visibility...
Identifier
36559, 1993-036BDV
Orbit
LEO
Country
Flag of CISCIS
Related business
Manufacturer
Unknown
Mission
Spacecraft
Bus & Motor
Unknown
Mass
Unknown
Launch date (UTC)
1993-06-16 (33 years ago)
Launch vehicle
Unknown
Launch site
Plesetsk Missile And Space Complex (PKMTR)
Object type
Payload
Rocket body
Debris
Shape & HBR
Unknown shape, 1.1 m
Radar Cross Section
Medium (>0.1 m² and <1 m²)

Expand to show TLE details & history
Last TLE update: 10 hours ago

TLE from 10 hours ago
0 COSMOS 2251 DEB
1 36559U 93036BDV 26264.92964793  .00002786  00000-0  14623-2 0  9999
2 36559  74.1226 244.1477 0262593 209.7887 148.8081 13.98437742850493
Epoch: 2026-09-21T22:18Z
TLE epoch observation values (Epoch: 2026-09-21T22:18:41.581Z)
Latitude
0.00006°
Longitude
-91.32796°
Altitude
1,066.581 km
Speed
7.236 km/s
True Right ascension
16h 16m 35s
True Declination
0° 00' 00"
Sunlit
Object was in daylight at epoch
Visualization orbit readout
Latitude
Unknown
Longitude
Unknown
Altitude
Unknown
Speed
Unknown
Apparent Right ascension
Unknown
Apparent Declination
Unknown
Sunlit
N/A
Visualization observer readout
Local Sidereal Time
00:57:04
Azimuth
Unknown
Elevation
Unknown
Doppler factor
Unknown
Orbital elements
Apogee altitude
1,087.903 km
Perigee altitude
705.83 km
Semi-major axis
7,275.003 km
Eccentricity
0.02626
Inclination
74.1226°
RAAN
244.1477°
Arg. of periapsis
209.7887°
True anomaly
150.32374°
Mean anomaly
148.8081°
Eccentric anomaly
149.57013°
Mean motion
3.49779 °/min
Orbital period
102.92 mins
BSTAR
0.0014623

Documentation

Showing up to 5 results
|